Weather History for CWGT - November, 2012

Change the Weather History Date:

Monday, November 12, 2012

  Actual Average Record
Temperature  
Mean Temperature 44 °F -  
Max Temperature 47 °F - - ()
Min Temperature 41 °F - - ()
Degree Days  
Heating Degree Days 21    
Moisture  
Dew Point 42 °F    
Average Humidity 92    
Maximum Humidity 96    
Minimum Humidity 89    
Precipitation  
Precipitation 0.00 in - - ()
Sea Level Pressure  
Sea Level Pressure 30.09 in    
Wind  
Wind Speed 9 mph ()    
Max Wind Speed 25 mph    
Max Gust Speed 18 mph    
T = Trace of Precipitation, MM = Missing Value Source: Averaged Metar Reports

Daily Weather History Graph

Daily Weather History Graph

Search for Another Location

Airport or City:

Trip Planner

Search our weather history database for the weather conditions in past years. The results will help you decide how hot, cold, wet, or windy it might be!

Date:

Astronomy

Nov. 12, 2012 Rise Set
Actual Time 7:25 AM PST 4:38 PM PST
Civil Twilight 6:50 AM PST 5:13 PM PST
Nautical Twilight 6:11 AM PST 5:51 PM PST
Astronomical Twilight 5:33 AM PST 6:29 PM PST
Moon 5:53 AM PST (11/12) 3:49 PM PST (11/12)
Length of Visible Light 10h 22m
Length of Day
9h 13m
Waning Crescent, 2% of the Moon is Illuminated
Nov 12
Waning Crescent
Nov 13
New
Nov 20
First Quarter
Nov 28
Full
Dec 6
Last Quarter

Hourly Weather History & Observations

Time (PST) Temp. Windchill Dew Point Humidity Pressure Visibility Wind Dir Wind Speed Gust Speed Precip Events Conditions
12:00 AM 41.9 °F 36.3 °F 38.8 °F 89% 30.06 in - East 9.2 mph - N/A   Unknown
1:00 AM 42.3 °F 40.5 °F 39.7 °F 91% 30.06 in - ENE 3.5 mph - N/A   Unknown
2:00 AM 41.7 °F 38.0 °F 39.6 °F 92% 30.06 in - South 5.8 mph - N/A   Unknown
3:00 AM 41.9 °F 40.0 °F 40.3 °F 94% 30.06 in - South 3.5 mph - N/A   Unknown
4:00 AM 42 °F - 40 °F 92% 30.06 in - West 3.5 mph - -  
4:00 AM 41.9 °F 40.0 °F 40.5 °F 95% 30.06 in - West 3.5 mph - N/A   Unknown
5:00 AM 42.3 °F 38.6 °F 40.8 °F 95% 30.07 in - WNW 5.8 mph - N/A   Unknown
6:00 AM 41.9 °F 38.2 °F 40.5 °F 95% 30.06 in - NW 5.8 mph - N/A   Unknown
7:00 AM 42.6 °F - 41.4 °F 95% 30.07 in - NW 2.3 mph - N/A   Unknown
8:00 AM 42.6 °F 39.9 °F 41.4 °F 95% 30.09 in - West 4.6 mph - N/A   Unknown
9:00 AM 42.6 °F 40.9 °F 41.4 °F 95% 30.10 in - West 3.5 mph - N/A   Unknown
10:00 AM 43 °F - 42 °F 93% 30.10 in - SW 1.2 mph - -  
10:00 AM 42.8 °F - 41.7 °F 96% 30.10 in - SW 1.2 mph - N/A   Unknown
11:00 AM 42.8 °F 38.6 °F 41.5 °F 95% 30.11 in - SSE 6.9 mph - N/A   Unknown
12:00 PM 43.9 °F 38.3 °F 42.1 °F 93% 30.10 in - SSE 10.4 mph 18.4 mph N/A   Unknown
1:00 PM 44.8 °F 37.1 °F 42.4 °F 91% 30.10 in - SE 18.4 mph - N/A   Unknown
2:00 PM 45.0 °F 37.4 °F 42.1 °F 90% 30.09 in - SE 18.4 mph - N/A   Unknown
3:00 PM 45.3 °F 37.8 °F 42.3 °F 89% 30.10 in - SE 18.4 mph - N/A   Unknown
4:00 PM 45 °F - 43 °F 91% 30.10 in - ESE 19.6 mph - -  
4:00 PM 45.3 °F 37.6 °F 43.2 °F 92% 30.10 in - ESE 19.6 mph - N/A   Unknown
5:00 PM 45.9 °F 37.2 °F 43.7 °F 92% 30.08 in - ESE 25.3 mph - N/A   Unknown
6:00 PM 45.9 °F 37.2 °F 43.5 °F 92% 30.09 in - ESE 25.3 mph - N/A   Unknown
7:00 PM 46.4 °F 38.1 °F 43.7 °F 90% 30.09 in - ESE 24.2 mph - N/A   Unknown
8:00 PM 46.9 °F - 44.4 °F 91% 30.11 in - ESE 23.0 mph - N/A   Unknown
9:00 PM 47.1 °F - 45.0 °F 92% 30.11 in - ESE 21.9 mph - N/A   Unknown
10:00 PM 47 °F - 45 °F 90% 30.12 in - ESE 24.2 mph - -  
10:00 PM 47.1 °F - 45.0 °F 92% 30.12 in - ESE 24.2 mph - N/A   Unknown
11:00 PM 47.1 °F - 45.1 °F 93% 30.13 in - ESE 19.6 mph - N/A   Unknown